Houghton Lake, MI

10:53 AM EDT on June 22, 2017 (GMT -0400)
Roscommon County

Weather History for KHTL - March, 2013

Change the Weather History Date:

Sunday, March 31, 2013

  Actual Average Record
Temperature  
Mean Temperature 36 °F 36 °F  
Max Temperature 47 °F 46 °F 74 °F (2010)
Min Temperature 25 °F 25 °F -10 °F (1923)
Degree Days  
Heating Degree Days 29 30  
Month to date heating degree days 1155 1114  
Since 1 July heating degree days 6529 6985  
Cooling Degree Days 0 0  
Month to date cooling degree days 0 0  
Year to date cooling degree days 0 0  
Moisture  
Dew Point 33 °F    
Average Humidity 73    
Maximum Humidity 92    
Minimum Humidity 53    
Precipitation  
Precipitation 0.05 in 0.07 in 1.55 in (1998)
Month to date precipitation 1.26 1.84  
Year to date precipitation 6.52 4.56  
Snow  
Snow 0.00 in 0.20 in 12.00 in (1926)
Month to date snowfall 5.8 8.3  
Since 1 July snowfall 57.1 62.8  
Snow Depth 3.00 in    
Sea Level Pressure  
Sea Level Pressure 29.66 in    
Wind  
Wind Speed 11 mph (WSW)    
Max Wind Speed 25 mph    
Max Gust Speed 36 mph    
Visibility 6 miles    
Events Rain , Snow    
T = Trace of Precipitation, MM = Missing Value Source: NWS Daily Summary

Daily Weather History Graph

Daily Weather History Graph

Search for Another Location

Airport or City:

Trip Planner

Search our weather history database for the weather conditions in past years. The results will help you decide how hot, cold, wet, or windy it might be!

Date:

Astronomy

Mar. 31, 2013 Rise Set
Actual Time 7:21 AM EDT 8:05 PM EDT
Civil Twilight 6:51 AM EDT 8:34 PM EDT
Nautical Twilight 6:17 AM EDT 9:09 PM EDT
Astronomical Twilight 5:40 AM EDT 9:45 PM EDT
Moon 12:19 AM EDT (3/31) 9:58 AM EDT (3/31)
Length of Visible Light 13h 42m
Length of Day
12h 43m
Waning Gibbous, 78% of the Moon is Illuminated
Mar 31
Waning Gibbous
Apr 3
Last Quarter
Apr 10
New
Apr 18
First Quarter
Apr 25
Full

Hourly Weather History & Observations

Time (EDT) Temp. Windchill Dew Point Humidity Pressure Visibility Wind Dir Wind Speed Gust Speed Precip Events Conditions
12:53 AM 43.0 °F 39.5 °F 26.1 °F 51% 29.83 in 10.0 mi SSW 5.8 mph - N/A   Overcast
1:53 AM 39.9 °F 35.8 °F 28.9 °F 65% 29.80 in 10.0 mi South 5.8 mph - 0.00 in   Overcast
2:53 AM 39.9 °F 35.8 °F 34.0 °F 79% 29.77 in 10.0 mi South 5.8 mph - 0.00 in   Overcast
3:28 AM 39.2 °F 33.6 °F 33.8 °F 81% 29.74 in 8.0 mi South 8.1 mph - 0.01 in Rain Light Rain
3:53 AM 39.0 °F 33.4 °F 34.0 °F 82% 29.74 in 7.0 mi South 8.1 mph - 0.01 in Rain Light Rain
4:08 AM 39.2 °F 34.2 °F 35.6 °F 87% 29.71 in 10.0 mi South 6.9 mph - 0.00 in   Overcast
4:53 AM 39.0 °F 34.0 °F 36.0 °F 89% 29.71 in 6.0 mi SSW 6.9 mph - 0.01 in Rain Light Rain
5:35 AM 39.2 °F 33.6 °F 37.4 °F 93% 29.67 in 6.0 mi SSW 8.1 mph - 0.01 in   Overcast
5:53 AM 39.0 °F 33.4 °F 37.0 °F 93% 29.68 in 5.0 mi SSW 8.1 mph - 0.01 in   Overcast
6:19 AM 39.2 °F 33.6 °F 37.4 °F 93% 29.65 in 5.0 mi SSW 8.1 mph - N/A   Overcast
6:53 AM 39.0 °F 32.3 °F 37.9 °F 96% 29.67 in 4.0 mi SSW 10.4 mph - N/A   Overcast
7:01 AM 39.2 °F 33.0 °F 37.4 °F 93% 29.65 in 4.0 mi SSW 9.2 mph - N/A   Overcast
7:26 AM 39.2 °F 33.6 °F 37.4 °F 93% 29.64 in 4.0 mi SSW 8.1 mph - N/A   Overcast
7:53 AM 39.0 °F 34.0 °F 37.9 °F 96% 29.67 in 3.0 mi SW 6.9 mph - N/A   Overcast
7:59 AM 39.2 °F 33.0 °F 37.4 °F 93% 29.64 in 1.8 mi SW 9.2 mph - N/A   Overcast
8:08 AM 39.2 °F 34.2 °F 37.4 °F 93% 29.64 in 1.5 mi SW 6.9 mph - N/A   Overcast
8:16 AM 39.2 °F 33.6 °F 37.4 °F 93% 29.64 in 1.5 mi SW 8.1 mph - N/A   Overcast
8:23 AM 39.2 °F 34.2 °F 37.4 °F 93% 29.64 in 2.0 mi SW 6.9 mph - N/A   Overcast
8:39 AM 39.2 °F 35.0 °F 37.4 °F 93% 29.64 in 2.5 mi WSW 5.8 mph - N/A   Overcast
8:53 AM 39.0 °F 34.0 °F 37.9 °F 96% 29.66 in 3.0 mi WSW 6.9 mph - N/A   Overcast
9:53 AM 39.0 °F 32.8 °F 37.0 °F 93% 29.66 in 5.0 mi West 9.2 mph - N/A   Overcast
10:27 AM 37.4 °F 30.3 °F 35.6 °F 93% 29.63 in 7.0 mi WNW 10.4 mph - N/A   Overcast
10:53 AM 39.9 °F 33.9 °F 34.0 °F 79% 29.65 in 9.0 mi WNW 9.2 mph - N/A   Overcast
11:53 AM 43.0 °F 37.7 °F 35.1 °F 74% 29.64 in 10.0 mi WSW 9.2 mph - N/A   Scattered Clouds
12:53 PM 46.0 °F 41.9 °F 36.0 °F 68% 29.62 in 10.0 mi WSW 8.1 mph - N/A   Clear
1:53 PM 46.9 °F - 36.0 °F 66% 29.60 in 10.0 mi West 11.5 mph - N/A   Partly Cloudy
2:29 PM 42.8 °F 36.2 °F 35.6 °F 76% 29.59 in 10.0 mi West 12.7 mph - N/A   Mostly Cloudy
2:53 PM 43.0 °F 35.1 °F 34.0 °F 71% 29.62 in 10.0 mi West 17.3 mph 24.2 mph N/A   Mostly Cloudy
3:53 PM 39.0 °F 31.4 °F 34.0 °F 82% 29.63 in 8.0 mi West 12.7 mph - N/A   Overcast
4:53 PM 39.9 °F 33.9 °F 33.1 °F 77% 29.62 in 8.0 mi WSW 9.2 mph - N/A   Overcast
5:10 PM 39.2 °F 33.0 °F 32.0 °F 75% 29.59 in 7.0 mi WSW 9.2 mph - N/A   Overcast
5:53 PM 39.9 °F 32.5 °F 32.0 °F 73% 29.62 in 8.0 mi WSW 12.7 mph 18.4 mph N/A   Mostly Cloudy
6:18 PM 39.2 °F 32.5 °F 30.2 °F 70% 29.59 in 10.0 mi West 10.4 mph - N/A   Overcast
6:53 PM 39.0 °F 31.4 °F 30.9 °F 73% 29.62 in 10.0 mi West 12.7 mph - N/A   Overcast
7:09 PM 37.4 °F 28.9 °F 32.0 °F 81% 29.60 in 6.0 mi West 13.8 mph 19.6 mph 0.00 in Rain Light Rain
7:25 PM 37.4 °F 29.3 °F 32.0 °F 81% 29.60 in 8.0 mi West 12.7 mph - 0.00 in   Overcast
7:44 PM 35.6 °F 25.9 °F 32.0 °F 87% 29.61 in 4.0 mi West 16.1 mph 27.6 mph 0.00 in Rain Light Rain
7:53 PM 35.1 °F 27.4 °F 32.0 °F 89% 29.64 in 6.0 mi West 10.4 mph 21.9 mph 0.01 in Snow Light Snow
8:12 PM 35.6 °F 25.2 °F 32.0 °F 87% 29.63 in 4.0 mi NW 18.4 mph 25.3 mph 0.00 in Snow Light Snow
8:16 PM 33.8 °F 23.2 °F 30.2 °F 87% 29.63 in 2.0 mi NW 17.3 mph 25.3 mph 0.00 in Snow Light Snow
8:20 PM 33.8 °F 24.3 °F 30.2 °F 87% 29.63 in 1.5 mi NW 13.8 mph 25.3 mph 0.00 in Snow Light Snow
8:22 PM 33.8 °F 26.4 °F 30.2 °F 87% 29.63 in 1.8 mi NW 9.2 mph 23.0 mph 0.00 in Snow Light Snow
8:38 PM 33.8 °F 23.5 °F 30.2 °F 87% 29.64 in 2.5 mi WNW 16.1 mph 23.0 mph 0.01 in Snow Light Snow
8:46 PM 33.8 °F 24.3 °F 30.2 °F 87% 29.64 in 2.5 mi WNW 13.8 mph 23.0 mph 0.01 in Snow Light Snow
8:53 PM 33.1 °F 23.0 °F 30.0 °F 89% 29.68 in 5.0 mi WNW 15.0 mph 23.0 mph 0.01 in Snow Light Snow
9:22 PM 32.0 °F 23.6 °F 30.2 °F 93% 29.65 in 8.0 mi WNW 10.4 mph - 0.00 in Snow Light Snow
9:53 PM 32.0 °F 20.5 °F 28.0 °F 85% 29.70 in 9.0 mi WNW 18.4 mph 27.6 mph 0.00 in Snow Light Snow
10:02 PM 30.2 °F 18.1 °F 26.6 °F 86% 29.67 in 1.8 mi NW 18.4 mph 33.4 mph 0.00 in Snow Light Snow
10:10 PM 30.2 °F 18.9 °F 26.6 °F 86% 29.68 in 2.0 mi NW 16.1 mph 31.1 mph 0.00 in Snow Light Snow
10:19 PM 30.2 °F 19.8 °F 26.6 °F 86% 29.68 in 6.0 mi NW 13.8 mph 23.0 mph 0.00 in Snow Light Snow
10:53 PM 28.9 °F 16.9 °F 24.1 °F 82% 29.73 in 10.0 mi NNW 17.3 mph 25.3 mph 0.00 in   Overcast
11:53 PM 27.0 °F 14.3 °F 19.0 °F 72% 29.75 in 10.0 mi NW 17.3 mph 29.9 mph N/A   Mostly Cloudy